Flag for France Weather past 2 weeks in Biarritz, France

Now
54 °F

Clear.


Feels Like: 53 °F
Forecast: 49 / 61 °F
Wind: 3 mph from Northeast

Location: Biarritz Airport

Current Time: Apr 28, 2015 at 10:45:56 PM

Latest Report: Apr 28, 2015 at 10:00 PM


Visibility: N/A

Pressure: 30.15 "Hg

Humidity: 67%

Dew point: 43 °F

Location of BiarritzLocation

Historic Weather in Biarritz — Graph

°F

Biarritz temperature yesterday

Maximum temperature yesterday: 61 °F (at 2:30 PM)
Minimum temperature yesterday: 54 °F (at 11:30 PM)
Average temperature yesterday: 56 °F

Past Weeks' High & Low Weather Summary

 TemperatureHumidityPressure
High84 °F (Apr 14, 3:00 PM)100% (Apr 17, 12:30 AM)30.30 "Hg (Apr 17, 12:30 AM)
Low46 °F (Apr 21, 6:30 AM)18% (Apr 15, 2:00 PM)29.62 "Hg (Apr 26, 4:00 PM)
Average61 °F71%30.01 "Hg
* Reported Apr 13 10:00 PM — Apr 28 10:00 PM, Biarritz, Weather by CustomWeather, © 2015

Note: Actual official high and low records may vary slightly from our data, if they occured in-between our weather recording intervals... More about our weather records

Advertising

Biarritz weather history for previous 24 hours

 ConditionsComfort  
Time TempWeatherWind HumidityBarometerVisibility
10:00 PM
Tue, Apr 28
54 °FClear.3 mph67%30.15 "HgN/A
9:30 PM55 °FClear.5 mph63%30.15 "HgN/A
9:00 PM55 °FClear.5 mph63%30.15 "HgN/A
8:30 PM55 °FClear.7 mph63%30.15 "HgN/A
8:00 PM55 °FClear.8 mph63%30.15 "HgN/A
7:30 PM57 °FClear.8 mph63%30.15 "HgN/A
7:00 PM57 °FClear.10 mph59%30.15 "HgN/A
6:30 PM57 °FClear.9 mph59%30.18 "HgN/A
6:00 PM59 °FClear.9 mph51%30.18 "HgN/A
5:30 PM59 °FClear.10 mph55%30.18 "HgN/A
5:00 PM59 °FClear.10 mph59%30.18 "HgN/A
4:30 PM57 °FClear.9 mph59%30.18 "HgN/A
4:00 PM59 °FClear.9 mph55%30.21 "HgN/A
3:30 PM59 °FClear.9 mph55%30.21 "HgN/A
3:00 PM59 °FClear.10 mph51%30.21 "HgN/A
2:30 PM59 °FPassing clouds.12 mph59%30.21 "HgN/A
2:00 PM59 °FClear.10 mph55%30.21 "HgN/A
1:30 PM59 °FPassing clouds.10 mph59%30.21 "HgN/A
1:00 PM57 °FScattered clouds.10 mph63%30.21 "HgN/A
12:30 PM59 °FPassing clouds.9 mph59%30.21 "HgN/A
12:00 PM57 °FPassing clouds.9 mph63%30.21 "HgN/A
11:30 AM57 °FPassing clouds.8 mph55%30.21 "HgN/A
11:00 AM57 °FPassing clouds.6 mph55%30.21 "HgN/A
10:30 AM57 °FClear.7 mph55%30.21 "HgN/A
10:00 AM57 °FPassing clouds.8 mph55%30.21 "HgN/A
9:30 AM55 °FClear.7 mph59%30.21 "HgN/A
9:00 AM55 °FClear.6 mph55%30.18 "HgN/A
8:30 AM54 °FPassing clouds.5 mph58%30.18 "HgN/A
8:00 AM54 °FPassing clouds.5 mph58%30.18 "HgN/A
7:30 AM52 °FPassing clouds.6 mph62%30.18 "HgN/A
7:00 AM54 °FPartly cloudy.6 mph63%30.15 "HgN/A
6:30 AM52 °FPassing clouds.5 mph72%30.15 "HgN/A
6:00 AM52 °FPassing clouds.5 mph67%30.15 "HgN/A
5:30 AM54 °FPartly cloudy.6 mph63%30.15 "HgN/A
5:00 AM54 °FPartly cloudy.7 mph67%30.15 "HgN/A
4:30 AM54 °FPassing clouds.8 mph67%30.12 "HgN/A
4:00 AM54 °FPassing clouds.9 mph67%30.12 "HgN/A
3:30 AM54 °FPassing clouds.8 mph67%30.12 "HgN/A
3:00 AM54 °FPassing clouds.7 mph67%30.12 "HgN/A
2:30 AM55 °FOvercast.8 mph67%30.12 "HgN/A
2:00 AM54 °FPartly cloudy.10 mph72%30.12 "HgN/A
1:30 AM54 °FPassing clouds.12 mph72%30.12 "HgN/A
1:00 AM54 °FPartly cloudy.10 mph67%30.09 "HgN/A
12:30 AM55 °FPassing clouds.12 mph63%30.09 "HgN/A
12:00 AM54 °FPassing clouds.12 mph63%30.09 "HgN/A
11:30 PM
Mon, Apr 27
54 °FPassing clouds.13 mph67%30.09 "HgN/A
11:00 PM55 °FPassing clouds.14 mph63%30.09 "HgN/A
10:30 PM55 °FPassing clouds.13 mph67%30.07 "HgN/A
10:00 PM55 °FPartly sunny.13 mph77%30.07 "HgN/A
Weather by CustomWeather, © 2015

See weather overviewHow to use our weather pages